[[{"header":{"parameterUnit":"m.s-1","parameterCategory":1,"la1":30.2991,"la2":30.254,"lo1":-89.0895,"lo2":-89.0444,"dy":0.0017,"dx":0.0017,"nx":28,"ny":28,"refTime":"2023-09-29T03:00:00:Z","depth":0,"parameterNumber":2,"parameterNumberName":"U-component_of_WINDS"},"data":[0,0,0,0,0,0,0,0,0,0,0,0,0,0,0,0,0,0,0,0,0,0,0,0,0,0,0,0,0,0,0,0,0,0,0,0,0,0,0,0,0,0,0,0,0,0,0,0,0,0,0,0,0,0,0,0,0,0,-2.2727,-2.2727,0,-2.2668,-2.2668,-2.2667,-2.25,-2.2496,-2.2492,-2.2489,-2.2433,-2.2435,-2.2437,0,0,0,0,0,0,0,0,0,0,0,0,0,-2.2699,-2.27,-2.2727,-2.2727,-2.2726,-2.2668,-2.2668,-2.2667,-2.25,-2.2496,-2.2492,-2.2487,-2.2433,-2.2435,-2.2437,0,0,0,0,0,0,0,0,0,0,0,0,0,-2.2683,-2.2701,-2.2727,-2.2636,-2.2627,-2.2669,-2.2668,-2.2667,-2.2501,-2.2496,-2.249,-2.2485,-2.2432,-2.2435,-2.2437,-2.2564,0,0,-2.2446,-2.2447,0,0,0,0,0,0,0,0,-2.2684,-2.2684,-2.265,-2.2642,-2.2632,-2.2586,-2.2637,-2.2633,-2.2503,-2.2549,-2.2489,-2.2483,-2.2489,-2.2486,-2.2488,-2.2562,-2.2559,-2.2446,-2.2448,-2.2449,-2.245,0,0,0,0,0,0,0,-2.2685,-2.2686,-2.2704,-2.265,-2.2639,-2.2599,-2.259,-2.2635,-2.2551,-2.2545,-2.2532,-2.2528,-2.2483,-2.2485,-2.2485,-2.2559,-2.2446,-2.2449,-2.2451,-2.2452,-2.2733,-2.2739,0,0,0,0,0,0,-2.2699,-2.2688,-2.2706,-2.2702,-2.2645,-2.2604,-2.2594,-2.2606,-2.2549,-2.2535,-2.2532,-2.252,-2.2483,-2.2482,-2.2482,-2.2627,-2.2449,-2.2452,-2.2454,-2.2727,-2.2734,-2.2741,0,0,0,0,0,0,-2.2699,-2.2702,-2.2708,-2.2692,-2.2689,-2.261,-2.2625,-2.2608,-2.261,-2.254,-2.2524,-2.255,-2.2479,-2.2478,-2.2545,-2.2622,-2.2453,-2.2456,-2.2721,-2.2729,-2.2737,-2.2917,0,0,0,0,0,0,-2.2699,-2.2703,-2.275,-2.2694,-2.2691,-2.2771,-2.2629,-2.2611,-2.2615,-2.2598,-2.2553,-2.254,-2.2474,-2.2541,-2.2548,-2.2623,-2.2458,-2.2713,-2.2725,-2.2735,-2.2904,-2.2931,-2.2954,0,0,0,0,0,-2.2699,-2.2804,-2.2753,-2.2757,-2.2748,-2.2776,-2.2774,-2.2696,-2.2622,-2.2669,-2.2623,-2.2541,-2.2613,-2.255,-2.2555,-2.2633,-2.2708,-2.2721,-2.2734,-2.2893,-2.2926,-2.2953,0,0,0,0,0,0,-2.2874,-2.2795,-2.2738,-2.2828,-2.281,-2.2748,-2.2804,-2.2733,-2.2736,-2.2721,-2.2624,-2.2615,-2.2695,-2.267,-2.2601,-2.2752,-2.2647,-2.2662,-2.2766,-2.2796,-2.2821,-2.2825,-2.246,0,0,0,0,0,-2.2923,-2.2951,-2.2881,-2.2968,-2.2961,-2.2885,-2.2895,-2.2835,-2.2813,-2.2805,-2.2764,-2.2747,-2.2765,-2.2779,-2.2792,-2.2899,-2.2887,-2.2955,-2.2981,-2.3001,-2.3015,-2.307,-2.3099,-2.2783,-2.2783,-2.2783,0,0,-2.3025,-2.2985,-2.301,-2.3002,-2.2981,-2.3013,-2.288,-2.292,-2.2943,-2.2811,-2.2871,-2.2841,-2.2815,-2.2902,-2.2938,-2.2884,-2.31,-2.3018,-2.3035,-2.3038,-2.3086,-2.3116,-2.3143,-2.2792,-2.279,-2.2789,0,0,-2.3227,-2.32,-2.3268,-2.3249,-2.3218,-2.3166,-2.3183,-2.3131,-2.3105,-2.3163,-2.3064,-2.3091,-2.3125,-2.311,-2.3107,-2.3303,-2.3227,-2.331,-2.3441,-2.3495,-2.352,-2.3541,-2.3611,-2.3637,-2.3324,-2.3324,-2.3325,0,-2.3358,-2.3401,-2.3313,-2.3359,-2.3359,-2.3239,-2.3308,-2.3294,-2.327,-2.3273,-2.3212,-2.325,-2.3225,-2.3306,-2.3354,-2.3356,-2.3372,-2.3315,-2.3523,-2.3544,-2.3563,-2.3628,-2.3654,-2.3334,-2.3333,-2.3332,-2.3331,0,-2.3564,-2.3596,-2.3655,-2.3632,-2.3639,-2.3697,-2.3618,-2.3635,-2.3575,-2.353,-2.3591,-2.3555,-2.3559,-2.3574,-2.3516,-2.3648,-2.3614,-2.354,-2.3432,-2.3604,-2.3664,-2.3689,-2.3349,-2.3345,-2.3342,-2.334,0,0,-2.3876,-2.3802,-2.3825,-2.3813,-2.3769,-2.3793,-2.3845,-2.3846,-2.3863,-2.385,-2.3892,-2.3923,-2.3853,-2.3849,-2.3789,-2.3837,-2.3994,-2.3756,-2.3754,-2.3801,-2.4136,-2.4193,-2.4223,-2.3943,-2.3948,-2.3951,-2.4138,0,-2.4067,-2.415,-2.4071,-2.4171,-2.4199,-2.4085,-2.413,-2.4109,-2.4068,-2.4087,-2.4042,-2.4066,-2.3972,-2.3969,-2.4011,-2.3966,-2.406,-2.3951,-2.3982,-2.3984,-2.3992,-2.4254,-2.4314,-2.4493,-2.4161,-2.4165,-2.4168,0,-2.43,-2.4296,-2.4398,-2.4346,-2.4355,-2.4397,-2.4392,-2.4411,-2.4384,-2.4351,-2.4348,-2.4274,-2.4322,-2.4216,-2.4282,-2.421,-2.4218,-2.4198,-2.4203,-2.4203,-2.4087,-2.4262,-2.4548,-2.4575,-2.4204,-2.4201,-2.4198,0,-2.4517,-2.4537,-2.46,-2.4593,-2.4535,-2.4567,-2.4544,-2.4512,-2.4518,-2.4513,-2.4516,-2.4519,-2.452,-2.4525,-2.4454,-2.4383,-2.4529,-2.4417,-2.4503,-2.4505,-2.4539,-2.4538,-2.4831,-2.4545,-2.4545,-2.4544,-2.4544,0,-2.4738,-2.4806,-2.4696,-2.4736,-2.4807,-2.4716,-2.479,-2.4756,-2.4728,-2.4759,-2.4661,-2.4693,-2.4597,-2.4619,-2.4564,-2.4626,-2.4628,-2.4603,-2.4588,-2.4612,-2.4616,-2.4616,-2.4602,-2.4551,-2.4549,-2.4548,-2.4547,0,-2.4993,-2.4923,-2.4984,-2.4923,-2.4909,-2.4965,-2.4912,-2.4946,-2.4898,-2.4939,-2.4944,-2.4869,-2.489,-2.4819,-2.4829,-2.4791,-2.4884,-2.4848,-2.4893,-2.4882,-2.4972,-2.4965,-2.5276,-2.5312,-2.5003,-2.5006,-2.5009,0,-2.5139,-2.5187,-2.5131,-2.5143,-2.5125,-2.5148,-2.5152,-2.5065,-2.5074,-2.5047,-2.5085,-2.5096,-2.5101,-2.514,-2.5087,-2.5094,-2.5058,-2.5166,-2.5058,-2.5081,-2.5059,-2.5058,-2.5062,-2.5189,-2.5193,-2.5196,-2.5199,0,-2.5405,-2.5368,-2.5377,-2.5375,-2.5382,-2.5377,-2.5364,-2.5381,-2.5287,-2.5303,-2.5321,-2.5325,-2.5333,-2.5347,-2.5342,-2.532,-2.5245,-2.5233,-2.5253,-2.5279,-2.5302,-2.5291,-2.4954,-2.5226,-2.5223,-2.5221,-2.522,-2.5219,-2.561,-2.5647,-2.5612,-2.5626,-2.5607,-2.5598,-2.5626,-2.5581,-2.5595,-2.5593,-2.5541,-2.5571,-2.5543,-2.5528,-2.5513,-2.5536,-2.5485,-2.5515,-2.5523,-2.5531,-2.5547,-2.5299,-2.5535,-2.5534,-2.5533,-2.5532,-2.5532,0,-2.587,-2.5842,-2.5856,-2.584,-2.5851,-2.5777,-2.5759,-2.5774,-2.58,-2.578,-2.5786,-2.5807,-2.582,-2.5768,-2.5773,-2.5801,-2.5767,-2.5806,-2.5803,-2.5799,-2.5591,-2.5573,-2.5833,-2.5833,-2.5833,-2.5833,-2.5833,-2.5833,-2.6008,-2.6066,-2.6025,-2.6073,-2.6045,-2.6071,-2.6067,-2.6058,-2.6041,-2.6069,-2.6078,-2.6043,-2.601,-2.6012,-2.6021,-2.6005,-2.6012,-2.6063,-2.6036,-2.5843,-2.5814,-2.5786,-2.5768,-2.6065,-2.6065,-2.6241,-2.6243,-2.6244]},{"header":{"parameterUnit":"m.s-1","parameterCategory":1,"la1":30.2991,"la2":30.254,"lo1":-89.0895,"lo2":-89.0444,"dy":0.0017,"dx":0.0017,"nx":28,"ny":28,"refTime":"2023-09-29T03:00:00:Z","depth":0,"parameterNumber":3,"parameterNumberName":"V-component_of_WINDS"},"data":[0,0,0,0,0,0,0,0,0,0,0,0,0,0,0,0,0,0,0,0,0,0,0,0,0,0,0,0,0,0,0,0,0,0,0,0,0,0,0,0,0,0,0,0,0,0,0,0,0,0,0,0,0,0,0,0,0,0,-1.4044,-1.4045,0,-1.4127,-1.4127,-1.4128,-1.4176,-1.4176,-1.4176,-1.4176,-1.4259,-1.4261,-1.4263,0,0,0,0,0,0,0,0,0,0,0,0,0,-1.3925,-1.3927,-1.4044,-1.4045,-1.4046,-1.4126,-1.4128,-1.4129,-1.4176,-1.4176,-1.4176,-1.4176,-1.4259,-1.4261,-1.4263,0,0,0,0,0,0,0,0,0,0,0,0,0,-1.3989,-1.3927,-1.4044,-1.4079,-1.4083,-1.4126,-1.4128,-1.4129,-1.4176,-1.4176,-1.4176,-1.4177,-1.4258,-1.4261,-1.4264,-1.4277,0,0,-1.4273,-1.4274,0,0,0,0,0,0,0,0,-1.3985,-1.3993,-1.4073,-1.4077,-1.4081,-1.4141,-1.4116,-1.4179,-1.4176,-1.4141,-1.4176,-1.4177,-1.422,-1.4226,-1.4241,-1.4281,-1.4285,-1.4273,-1.4275,-1.4277,-1.4277,0,0,0,0,0,0,0,-1.3981,-1.399,-1.4077,-1.4074,-1.4079,-1.409,-1.41,-1.4128,-1.4177,-1.4144,-1.4147,-1.4157,-1.4222,-1.4238,-1.4243,-1.4286,-1.4273,-1.4276,-1.4278,-1.4279,-1.434,-1.434,0,0,0,0,0,0,-1.3971,-1.3986,-1.4074,-1.4079,-1.4033,-1.4092,-1.4103,-1.4122,-1.4177,-1.4186,-1.4156,-1.4158,-1.4232,-1.4239,-1.4246,-1.4265,-1.4277,-1.4279,-1.4281,-1.434,-1.434,-1.434,0,0,0,0,0,0,-1.3968,-1.3978,-1.4071,-1.4033,-1.4046,-1.4094,-1.4115,-1.4123,-1.4139,-1.4187,-1.4196,-1.4163,-1.4233,-1.4242,-1.4269,-1.4268,-1.4281,-1.4284,-1.4341,-1.434,-1.434,-1.4303,0,0,0,0,0,0,-1.3964,-1.3977,-1.3983,-1.4033,-1.4048,-1.4093,-1.4115,-1.4125,-1.4144,-1.4148,-1.4196,-1.4204,-1.4234,-1.4264,-1.4272,-1.4273,-1.4286,-1.4341,-1.4341,-1.434,-1.4304,-1.4301,-1.4299,0,0,0,0,0,-1.396,-1.3969,-1.3983,-1.3994,-1.4057,-1.4093,-1.4101,-1.4135,-1.4144,-1.415,-1.4181,-1.4202,-1.4267,-1.4267,-1.4276,-1.4278,-1.4341,-1.4341,-1.434,-1.4306,-1.4302,-1.4299,0,0,0,0,0,0,-1.3917,-1.3976,-1.3993,-1.4019,-1.405,-1.4101,-1.411,-1.413,-1.416,-1.4162,-1.4203,-1.4213,-1.4236,-1.426,-1.4258,-1.4293,-1.4306,-1.4308,-1.4277,-1.4274,-1.4271,-1.4265,-1.4288,0,0,0,0,0,-1.3911,-1.3936,-1.3986,-1.4004,-1.4019,-1.4061,-1.4078,-1.4102,-1.4136,-1.415,-1.4183,-1.4214,-1.4242,-1.4259,-1.4287,-1.4308,-1.4318,-1.4313,-1.4311,-1.4308,-1.4309,-1.432,-1.4319,-1.4338,-1.4338,-1.4338,0,0,-1.3898,-1.3934,-1.3947,-1.3996,-1.4024,-1.4048,-1.4072,-1.4097,-1.4115,-1.4153,-1.4181,-1.4206,-1.4244,-1.4268,-1.428,-1.4288,-1.4305,-1.4307,-1.4305,-1.4307,-1.432,-1.4318,-1.4316,-1.4338,-1.4338,-1.4338,0,0,-1.3887,-1.3917,-1.3934,-1.3961,-1.4002,-1.403,-1.4034,-1.4082,-1.41,-1.4128,-1.4157,-1.4179,-1.4226,-1.4251,-1.4271,-1.4268,-1.4289,-1.4276,-1.4261,-1.4272,-1.427,-1.4269,-1.4268,-1.4267,-1.4276,-1.4276,-1.4276,0,-1.3866,-1.3904,-1.3941,-1.3964,-1.3984,-1.402,-1.4038,-1.4062,-1.411,-1.4123,-1.4131,-1.419,-1.4218,-1.4248,-1.4247,-1.4262,-1.4267,-1.4271,-1.4268,-1.4267,-1.4266,-1.4265,-1.4265,-1.4274,-1.4275,-1.4275,-1.4275,0,-1.3875,-1.3901,-1.391,-1.3956,-1.3977,-1.3997,-1.4037,-1.4054,-1.4075,-1.4102,-1.413,-1.4165,-1.42,-1.4209,-1.423,-1.4242,-1.4245,-1.426,-1.4275,-1.4262,-1.4262,-1.4262,-1.4272,-1.4272,-1.4273,-1.4273,0,0,-1.384,-1.3905,-1.3908,-1.3929,-1.3976,-1.3997,-1.4018,-1.4053,-1.4066,-1.4098,-1.4116,-1.4154,-1.4168,-1.419,-1.4214,-1.4224,-1.4218,-1.4237,-1.4239,-1.4232,-1.4232,-1.422,-1.4219,-1.4232,-1.4232,-1.4232,-1.4229,0,-1.3836,-1.3876,-1.391,-1.3937,-1.3961,-1.3995,-1.4013,-1.4044,-1.4069,-1.4092,-1.412,-1.4146,-1.4163,-1.4176,-1.4187,-1.4217,-1.4219,-1.4217,-1.4249,-1.425,-1.4238,-1.4219,-1.4207,-1.4202,-1.4229,-1.4229,-1.4229,0,-1.3836,-1.3866,-1.3896,-1.3941,-1.3952,-1.3968,-1.4002,-1.4024,-1.4059,-1.4076,-1.41,-1.4125,-1.4148,-1.416,-1.4192,-1.419,-1.4205,-1.4221,-1.4222,-1.4226,-1.4238,-1.4222,-1.4201,-1.42,-1.4229,-1.4229,-1.4229,0,-1.3807,-1.3855,-1.3879,-1.3896,-1.3948,-1.3958,-1.398,-1.4016,-1.4034,-1.4064,-1.4076,-1.4108,-1.4125,-1.4148,-1.4181,-1.4187,-1.4209,-1.4224,-1.4223,-1.4222,-1.4227,-1.4226,-1.4207,-1.4236,-1.4236,-1.4236,-1.4236,0,-1.3798,-1.3815,-1.3866,-1.3881,-1.3901,-1.3938,-1.3956,-1.3981,-1.4012,-1.4032,-1.4063,-1.408,-1.4123,-1.4145,-1.4171,-1.4193,-1.42,-1.4214,-1.4221,-1.4212,-1.421,-1.4222,-1.4223,-1.4236,-1.4236,-1.4236,-1.4236,0,-1.3769,-1.3804,-1.3832,-1.3879,-1.3892,-1.3904,-1.3944,-1.3959,-1.3985,-1.401,-1.4017,-1.4059,-1.4087,-1.4122,-1.4161,-1.4178,-1.4197,-1.4207,-1.4185,-1.4189,-1.4186,-1.4186,-1.4174,-1.4175,-1.4204,-1.4203,-1.4203,0,-1.3761,-1.3775,-1.3823,-1.3838,-1.386,-1.3884,-1.3903,-1.394,-1.3959,-1.3999,-1.4009,-1.4039,-1.4065,-1.4108,-1.4141,-1.4171,-1.4182,-1.4176,-1.4186,-1.4176,-1.4181,-1.418,-1.4181,-1.4173,-1.4172,-1.4172,-1.4171,0,-1.3743,-1.3759,-1.3786,-1.3818,-1.3839,-1.3867,-1.3895,-1.3906,-1.3948,-1.3967,-1.3996,-1.4016,-1.4056,-1.4085,-1.4119,-1.4141,-1.4163,-1.4168,-1.4169,-1.416,-1.4146,-1.4153,-1.4177,-1.4168,-1.4168,-1.4168,-1.4169,-1.4169,-1.3724,-1.3737,-1.3773,-1.3801,-1.3826,-1.3852,-1.3868,-1.3896,-1.3921,-1.3957,-1.3977,-1.4005,-1.4038,-1.4086,-1.4107,-1.4129,-1.4137,-1.4139,-1.414,-1.414,-1.4136,-1.4143,-1.4135,-1.4136,-1.4136,-1.4136,-1.4136,0,-1.3706,-1.3731,-1.3756,-1.3795,-1.3817,-1.3836,-1.3868,-1.3885,-1.3909,-1.3939,-1.3964,-1.3996,-1.4025,-1.406,-1.409,-1.4101,-1.4112,-1.4108,-1.4107,-1.4112,-1.4128,-1.4123,-1.4098,-1.4098,-1.4098,-1.4098,-1.4098,-1.4098,-1.37,-1.3724,-1.3744,-1.378,-1.3805,-1.3832,-1.3849,-1.3872,-1.3896,-1.3931,-1.3955,-1.3978,-1.4009,-1.4042,-1.4069,-1.4078,-1.4088,-1.4081,-1.4093,-1.4107,-1.4111,-1.4114,-1.411,-1.4083,-1.4083,-1.4075,-1.4075,-1.4075]}]]